When you browse on this site, cookies collect data to enhance your experience and personalize the content and advertising you see.
Visit our Privacy Policy to learn more. By continuing to use the site, you agree to this use of cookies and data.
  • In Deutschland
  • Länderverzeichnis
  • Für 7 Tage
  • Wassertemperatur
  • Satellitenkarten
  • Wetterkarte
  • Widgets
  • user-avatar
    Anmelden

    Stündliche Wetter Oderzo

    Heute, 19 Dezember, Mittwoch

    Zeit Temperatur Niederschläge Wind Luftdruck Luftfeuchtigkeit
    00:00 +3°C° 0 mm 2 m/S 769 mmHg 63%
    01:00 +3°C° 0 mm 2 m/S 769 mmHg 63%
    02:00 +3°C° 0 mm 2 m/S 768 mmHg 63%
    03:00 +3°C° 0 mm 2 m/S 768 mmHg 62%
    04:00 +2°C° 0 mm 2 m/S 768 mmHg 62%
    05:00 +3°C° 0 mm 2 m/S 768 mmHg 61%
    06:00 +3°C° 0 mm 2 m/S 768 mmHg 61%
    07:00 +3°C° 0 mm 2 m/S 767 mmHg 60%
    08:00 +5°C° 0 mm 1 m/S 767 mmHg 58%
    09:00 +5°C° 0 mm 1 m/S 767 mmHg 55%
    10:00 +6°C° 0 mm 1 m/S 767 mmHg 52%
    11:00 +7°C° 0 mm 1 m/S 767 mmHg 52%
    12:00 +8°C° 0 mm 1 m/S 766 mmHg 51%
    13:00 +8°C° 0 mm 1 m/S 766 mmHg 50%
    14:00 +8°C° 0 mm 1 m/S 766 mmHg 54%
    15:00 +7°C° 0 mm 1 m/S 765 mmHg 59%
    16:00 +6°C° 0 mm 1 m/S 765 mmHg 63%
    17:00 +6°C° 0 mm 1 m/S 765 mmHg 64%
    18:00 +5°C° 0 mm 1 m/S 765 mmHg 65%
    19:00 +4°C° 0 mm 2 m/S 765 mmHg 65%
    20:00 +4°C° 0.1 mm 2 m/S 765 mmHg 66%
    21:00 +4°C° 0.1 mm 3 m/S 765 mmHg 66%
    22:00 +4°C° 0.1 mm 3 m/S 765 mmHg 67%
    23:00 +4°C° 0.8 mm 3 m/S 765 mmHg 72%

    Morgen, 20 Dezember, Donnerstag

    Zeit Temperatur Niederschläge Wind Luftdruck Luftfeuchtigkeit
    00:00 +4°C° 0.8 mm 3 m/S 765 mmHg 77%
    01:00 +4°C° 0.8 mm 3 m/S 764 mmHg 82%
    02:00 +4°C° 0.9 mm 3 m/S 764 mmHg 83%
    03:00 +4°C° 0.9 mm 3 m/S 764 mmHg 85%
    04:00 +4°C° 0.9 mm 3 m/S 764 mmHg 87%
    05:00 +4°C° 0.3 mm 3 m/S 764 mmHg 87%
    06:00 +4°C° 0.3 mm 3 m/S 764 mmHg 87%
    07:00 +5°C° 0.3 mm 3 m/S 764 mmHg 87%
    08:00 +6°C° 0.1 mm 2 m/S 764 mmHg 85%
    09:00 +7°C° 0.1 mm 2 m/S 764 mmHg 82%
    10:00 +7°C° 0.1 mm 2 m/S 765 mmHg 80%
    11:00 +8°C° 0 mm 2 m/S 764 mmHg 77%
    12:00 +9°C° 0 mm 2 m/S 764 mmHg 74%
    13:00 +10°C° 0 mm 2 m/S 764 mmHg 72%
    14:00 +9°C° 0 mm 2 m/S 765 mmHg 76%
    15:00 +8°C° 0 mm 2 m/S 765 mmHg 80%
    16:00 +7°C° 0 mm 2 m/S 765 mmHg 85%
    17:00 +7°C° 0 mm 2 m/S 766 mmHg 85%
    18:00 +7°C° 0 mm 2 m/S 766 mmHg 86%
    19:00 +6°C° 0 mm 2 m/S 767 mmHg 86%
    20:00 +7°C° 0 mm 1 m/S 767 mmHg 86%
    21:00 +7°C° 0 mm 1 m/S 768 mmHg 86%
    22:00 +7°C° 0 mm 1 m/S 768 mmHg 86%
    23:00 +7°C° 0 mm 1 m/S 768 mmHg 86%

    übermorgen, 21 Dezember, Freitag

    Zeit Temperatur Niederschläge Wind Luftdruck Luftfeuchtigkeit
    00:00 +6°C° 0 mm 1 m/S 768 mmHg 85%
    01:00 +6°C° 0 mm 1 m/S 769 mmHg 85%
    02:00 +6°C° 0 mm 1 m/S 769 mmHg 86%
    03:00 +6°C° 0 mm 1 m/S 769 mmHg 86%
    04:00 +6°C° 0 mm 1 m/S 768 mmHg 86%
    05:00 +6°C° 0 mm 1 m/S 769 mmHg 86%
    06:00 +6°C° 0 mm 1 m/S 769 mmHg 86%
    07:00 +6°C° 0 mm 1 m/S 769 mmHg 86%
    08:00 +6°C° 0 mm 1 m/S 769 mmHg 85%
    09:00 +7°C° 0 mm 1 m/S 769 mmHg 84%
    10:00 +7°C° 0 mm 1 m/S 768 mmHg 83%
    11:00 +8°C° 0 mm 1 m/S 768 mmHg 82%
    12:00 +8°C° 0 mm 1 m/S 767 mmHg 81%
    13:00 +9°C° 0 mm 1 m/S 767 mmHg 81%
    14:00 +8°C° 0 mm 1 m/S 766 mmHg 84%
    15:00 +8°C° 0 mm 1 m/S 766 mmHg 86%
    16:00 +7°C° 0 mm 1 m/S 766 mmHg 89%
    17:00 +7°C° 0 mm 1 m/S 766 mmHg 90%
    18:00 +6°C° 0 mm 1 m/S 766 mmHg 90%
    19:00 +6°C° 0 mm 1 m/S 767 mmHg 91%
    20:00 +6°C° 0 mm 1 m/S 767 mmHg 90%
    21:00 +6°C° 0 mm 1 m/S 766 mmHg 89%
    22:00 +6°C° 0 mm 1 m/S 766 mmHg 88%
    23:00 +6°C° 0 mm 1 m/S 766 mmHg 87%

    22 Dezember, Samstag

    Zeit Temperatur Niederschläge Wind Luftdruck Luftfeuchtigkeit
    00:00 +5°C° 0 mm 1 m/S 766 mmHg 87%
    01:00 +5°C° 0 mm 1 m/S 766 mmHg 87%
    02:00 +5°C° 0 mm 1 m/S 766 mmHg 86%
    03:00 +5°C° 0 mm 1 m/S 765 mmHg 86%
    04:00 +4°C° 0 mm 2 m/S 765 mmHg 86%
    05:00 +4°C° 0 mm 2 m/S 765 mmHg 85%
    06:00 +4°C° 0 mm 2 m/S 764 mmHg 85%
    07:00 +4°C° 0 mm 2 m/S 764 mmHg 85%
    08:00 +6°C° 0 mm 1 m/S 764 mmHg 83%
    09:00 +7°C° 0 mm 1 m/S 764 mmHg 81%
    10:00 +8°C° 0 mm 1 m/S 764 mmHg 79%
    11:00 +8°C° 0 mm 1 m/S 763 mmHg 78%
    12:00 +9°C° 0 mm 1 m/S 763 mmHg 77%
    13:00 +10°C° 0 mm 1 m/S 762 mmHg 76%
    14:00 +9°C° 0 mm 1 m/S 762 mmHg 80%
    15:00 +9°C° 0 mm 1 m/S 762 mmHg 84%
    16:00 +8°C° 0 mm 1 m/S 762 mmHg 87%
    17:00 +8°C° 0 mm 1 m/S 763 mmHg 88%
    18:00 +7°C° 0 mm 1 m/S 763 mmHg 89%
    19:00 +6°C° 0 mm 2 m/S 764 mmHg 89%
    20:00 +6°C° 0 mm 2 m/S 764 mmHg 89%
    21:00 +6°C° 0 mm 2 m/S 764 mmHg 88%
    22:00 +6°C° 0 mm 2 m/S 765 mmHg 87%
    23:00 +6°C° 0 mm 2 m/S 765 mmHg 86%

    23 Dezember, Sonntag

    Zeit Temperatur Niederschläge Wind Luftdruck Luftfeuchtigkeit
    00:00 +5°C° 0 mm 2 m/S 765 mmHg 85%
    01:00 +5°C° 0 mm 2 m/S 765 mmHg 84%
    02:00 +5°C° 0 mm 2 m/S 765 mmHg 83%
    03:00 +5°C° 0 mm 2 m/S 765 mmHg 82%
    04:00 +6°C° 0 mm 1 m/S 765 mmHg 81%
    05:00 +6°C° 0 mm 1 m/S 766 mmHg 81%
    06:00 +6°C° 0 mm 1 m/S 766 mmHg 80%
    07:00 +6°C° 0 mm 1 m/S 766 mmHg 79%
    08:00 +7°C° 0 mm 1 m/S 766 mmHg 77%
    09:00 +8°C° 0 mm 1 m/S 767 mmHg 75%
    10:00 +9°C° 0 mm 1 m/S 767 mmHg 73%
    11:00 +10°C° 0 mm 1 m/S 766 mmHg 71%
    12:00 +11°C° 0 mm 1 m/S 766 mmHg 70%
    13:00 +12°C° 0 mm 1 m/S 766 mmHg 69%
    14:00 +11°C° 0 mm 1 m/S 766 mmHg 73%
    15:00 +10°C° 0 mm 1 m/S 766 mmHg 77%
    16:00 +10°C° 0 mm 1 m/S 766 mmHg 82%
    17:00 +9°C° 0 mm 1 m/S 766 mmHg 82%
    18:00 +8°C° 0 mm 1 m/S 767 mmHg 83%
    19:00 +8°C° 0 mm 1 m/S 767 mmHg 83%
    20:00 +8°C° 0 mm 1 m/S 767 mmHg 83%
    21:00 +8°C° 0 mm 1 m/S 768 mmHg 82%
    22:00 +8°C° 0 mm 1 m/S 768 mmHg 82%
    23:00 +7°C° 0 mm 1 m/S 768 mmHg 81%

    24 Dezember, Montag

    Zeit Temperatur Niederschläge Wind Luftdruck Luftfeuchtigkeit
    00:00 +7°C° 0 mm 1 m/S 768 mmHg 81%
    01:00 +7°C° 0 mm 1 m/S 767 mmHg 81%
    02:00 +7°C° 0 mm 1 m/S 767 mmHg 80%
    03:00 +6°C° 0 mm 2 m/S 767 mmHg 80%
    04:00 +6°C° 0 mm 2 m/S 767 mmHg 80%
    05:00 +6°C° 0 mm 2 m/S 767 mmHg 80%
    06:00 +6°C° 0 mm 2 m/S 767 mmHg 79%
    07:00 +6°C° 0 mm 2 m/S 767 mmHg 79%
    08:00 +7°C° 0 mm 2 m/S 767 mmHg 77%
    09:00 +8°C° 0 mm 2 m/S 767 mmHg 74%
    10:00 +9°C° 0 mm 2 m/S 768 mmHg 72%
    11:00 +11°C° 0 mm 1 m/S 768 mmHg 69%
    12:00 +12°C° 0 mm 1 m/S 768 mmHg 66%
    13:00 +13°C° 0 mm 1 m/S 768 mmHg 64%
    14:00 +12°C° 0 mm 1 m/S 768 mmHg 68%
    15:00 +11°C° 0 mm 1 m/S 768 mmHg 72%
    16:00 +10°C° 0 mm 1 m/S 768 mmHg 75%
    17:00 +10°C° 0 mm 1 m/S 768 mmHg 76%
    18:00 +8°C° 0 mm 2 m/S 769 mmHg 77%
    19:00 +8°C° 0 mm 2 m/S 769 mmHg 78%
    20:00 +8°C° 0 mm 2 m/S 769 mmHg 78%
    21:00 +8°C° 0 mm 2 m/S 769 mmHg 78%
    22:00 +8°C° 0 mm 2 m/S 770 mmHg 78%
    23:00 +7°C° 0 mm 2 m/S 770 mmHg 78%
    Mehr zeigen